Terug naar catalogus

O3B FM20

ActiefCommunicatieMEO
NORAD 44112·PAYLOAD·🇱🇺 Luxembourg

Gelanceerd Apr 4, 2019 vanaf Guiana Space Centre

Loading…

Volgende Passages (komende 24 uur)

TLE

VersSource: CelesTrak SupGP

Epoch: Sep 13, 2026, 19:59 UTC

1 44112C 19020A   26256.83333333  .00000000  00000+0  00000+0 0  2568
2 44112   0.0543 353.7126 0002234 177.4231 314.6580  5.00115783    17

Volg O3B FM20 in realtime met AllMySat

Download on the App Store